Location: Newark
(33.6439°N, 114.9881°W)
Time: 01:13:49
(UTC+00:00)

Altair - All Passes

Search period start: 19 August 2019 00:00
Search period end: 29 August 2019 00:00
Orbit: 1501 x 1683 km, 47.2° (Epoch: 16 August)

Date Brightness Start Highest point End Pass type
(mag) Time Alt. Az. Time Alt. Az. Time Alt. Az.
19 Aug - 08:17:29 10° SSE 08:22:31 15° ESE 08:27:28 10° E visible
19 Aug - 10:16:21 10° SW 10:26:07 64° SE 10:35:31 10° ENE visible
19 Aug - 12:21:43 10° W 12:31:10 51° NNW 12:40:17 10° NE visible
19 Aug - 14:29:17 10° WNW 14:37:48 35° N 14:46:05 10° ENE daylight
19 Aug - 16:35:16 10° NW 16:44:20 53° NNE 16:53:14 10° E daylight
19 Aug - 18:40:11 10° WNW 18:49:10 59° SW 18:58:05 10° SSE daylight
19 Aug - 20:49:34 10° WSW 20:52:27 12° WSW 20:55:22 10° SW daylight
20 Aug - 07:53:29 10° SSE 07:57:27 13° ESE 08:01:22 10° E visible
20 Aug - 09:51:16 10° SSW 10:00:58 59° SE 10:10:19 10° ENE visible
20 Aug - 11:56:22 10° WSW 12:05:54 54° NNW 12:15:07 10° NE visible
20 Aug - 14:03:54 10° WNW 14:12:28 35° N 14:20:47 10° ENE daylight
20 Aug - 16:10:04 10° NW 16:19:06 50° NNE 16:27:56 10° E daylight
20 Aug - 18:14:58 10° WNW 18:24:03 64° SW 18:33:04 10° SE daylight
20 Aug - 20:23:15 10° W 20:27:25 14° WSW 20:31:36 10° SSW daylight
21 Aug - 07:30:04 10° SE 07:32:23 11° ESE 07:34:41 10° ESE visible
21 Aug - 09:26:13 10° SSW 09:35:49 54° SE 09:45:05 10° ENE visible
21 Aug - 11:31:00 10° WSW 11:40:39 58° NNW 11:49:58 10° NE visible
21 Aug - 13:38:31 10° WNW 13:47:08 35° N 13:55:29 10° ENE daylight
21 Aug - 15:44:50 10° NW 15:53:50 48° NNE 16:02:37 10° E daylight
21 Aug - 17:49:45 10° WNW 17:58:57 70° SW 18:08:01 10° SE daylight
21 Aug - 19:57:20 10° W 20:02:23 16° WSW 20:07:27 10° SSW daylight
22 Aug - 09:01:12 10° SSW 09:10:41 50° SE 09:19:51 10° ENE visible
22 Aug - 11:05:38 10° WSW 11:15:24 61° NNW 11:24:48 10° NE visible
22 Aug - 13:13:06 10° WNW 13:21:47 36° N 13:30:12 10° ENE daylight
22 Aug - 15:19:36 10° NW 15:28:34 45° NNE 15:37:17 10° E daylight
22 Aug - 17:24:33 10° NW 17:33:49 76° SW 17:42:56 10° SE daylight
22 Aug - 19:31:36 10° W 19:37:20 19° SW 19:43:07 10° SSW daylight
23 Aug - 08:36:13 10° SSW 08:45:33 46° SE 08:54:36 10° ENE visible
23 Aug - 10:40:18 10° WSW 10:50:09 65° NNW 10:59:38 10° NE visible
23 Aug - 12:47:41 10° WNW 12:56:27 36° N 13:04:56 10° ENE daylight
23 Aug - 14:54:21 10° NW 15:03:17 44° NNE 15:11:58 10° E daylight
23 Aug - 16:59:21 10° NW 17:08:41 82° SW 17:17:50 10° SE daylight
23 Aug - 19:05:58 10° W 19:12:18 21° SW 19:18:39 10° S daylight
24 Aug - 08:11:16 10° SSW 08:20:25 42° SE 08:29:19 10° ENE visible
24 Aug - 10:15:00 10° WSW 10:24:55 69° NNW 10:34:29 10° NE visible
24 Aug - 12:22:17 10° WNW 12:31:07 37° N 12:39:40 10° ENE visible
24 Aug - 14:29:06 10° NW 14:38:00 42° NNE 14:46:37 10° E daylight
24 Aug - 16:34:08 10° NW 16:43:32 88° SW 16:52:43 10° SE daylight
24 Aug - 18:40:25 10° WNW 18:47:16 24° SW 18:54:04 10° S daylight
25 Aug - 07:46:21 10° SSW 07:55:18 38° SE 08:04:00 10° ENE visible
25 Aug - 09:49:41 10° WSW 09:59:40 74° NW 10:09:19 10° NE visible
25 Aug - 11:56:51 10° WNW 12:05:47 38° N 12:14:25 10° NE visible
25 Aug - 14:03:50 10° NW 14:12:42 41° NNE 14:21:17 10° E daylight
25 Aug - 16:08:56 10° NW 16:18:22 87° NE 16:27:34 10° SE daylight
25 Aug - 18:14:57 10° WNW 18:22:12 27° SW 18:29:26 10° S daylight
26 Aug - 07:21:29 10° S 07:30:10 34° SE 07:38:40 10° ENE visible
26 Aug - 09:24:24 10° WSW 09:34:27 78° NW 09:44:09 10° NE visible
26 Aug - 11:31:25 10° W 11:40:26 39° NNW 11:49:11 10° NE visible
26 Aug - 13:38:32 10° NW 13:47:23 39° NNE 13:55:57 10° E daylight
26 Aug - 15:43:45 10° NW 15:53:12 81° NE 16:02:24 10° ESE daylight
26 Aug - 17:49:31 10° WNW 17:57:09 30° SW 18:04:43 10° S daylight
27 Aug - 06:56:39 10° S 07:05:04 31° SE 07:13:18 10° ENE visible
27 Aug - 08:59:09 10° SW 09:09:14 84° NW 09:18:59 10° NE visible
27 Aug - 11:05:58 10° W 11:15:06 41° NNW 11:23:57 10° NE visible
27 Aug - 13:13:14 10° NW 13:22:04 38° N 13:30:36 10° ENE daylight
27 Aug - 15:18:33 10° NW 15:28:02 76° NE 15:37:13 10° ESE daylight
27 Aug - 17:24:08 10° WNW 17:32:06 33° SW 17:39:57 10° S daylight
28 Aug - 06:31:54 10° S 06:39:58 28° SE 06:47:52 10° ENE visible
28 Aug - 08:33:55 10° SW 08:44:02 89° NW 08:53:49 10° NE visible
28 Aug - 10:40:32 10° W 10:49:47 42° NNW 10:58:43 10° NE visible
28 Aug - 12:47:55 10° WNW 12:56:44 38° N 13:05:15 10° ENE visible
28 Aug - 14:53:21 10° NW 15:02:50 71° NNE 15:12:00 10° ESE daylight
28 Aug - 16:58:47 10° WNW 17:07:02 37° SW 17:15:09 10° SSE daylight
